AirNav   Air Wisconsin pilot careers
 
 1037 users online  

Z13 Akiachak Airport
Akiachak, Alaska, USA

GOING TO AKIACHAK?


FAA INFORMATION EFFECTIVE 29 MARCH 2018

Location

FAA Identifier: Z13
Lat/Long: 60-54-49.7150N / 161-29-35.9850W
60-54.828583N / 161-29.599750W
60.9138097 / -161.4933292
(estimated)
Elevation: 22.8 ft. / 6.9 m (surveyed)
Variation: 19E (1985)
From city: 2 miles W of AKIACHAK, AK
Time zone: UTC -8 (UTC -9 during Standard Time)

Airport Operations

Airport use: Open to the public
Activation date: 01/1968
Control tower: no
ARTCC: ANCHORAGE CENTER
FSS: KENAI FLIGHT SERVICE STATION [907-283-8469]
NOTAMs facility: ENA (NOTAM-D service available)
Attendance: UNATNDD
Wind indicator: lighted
Segmented circle: yes
Lights: ACTVT MIRL RY 01/19 AND WINDSOCK - CTAF.
Beacon: white-green (lighted land airport)
ACTVT ROTG BCN - CTAF.

Airport Communications

CTAF: 122.9
WX AWOS-3P at KWT (8 nm S): 120.000 (907-868-7313)
WX ASOS at BET (13 nm SW): 135.45 (907-543-5475)
WX AWOS-3P at WNA (20 nm SW): 121.425 (907-868-7317)

Nearby radio navigation aids

VOR radial/distance  VOR name  Freq  Var
BETr037/12.4BETHEL VORTAC114.1014E

 
NDB name  Hdg/Dist  Freq  Var  ID
OSCARVILLE045/13.325111EOSE --- ... .

Airport Services

Airframe service: NONE
Powerplant service: NONE
Bottled oxygen: NONE
Bulk oxygen: NONE

Runway Information

Runway 1/19

Dimensions: 3300 x 60 ft. / 1006 x 18 m
Surface: gravel, in good condition
Runway edge lights: medium intensity
Runway edge markings: RYS 01 & 19 NSTD MKGS: RYS MKD WITH LGTS, REFLECTIVE CONES AND THLD MKGS.
RUNWAY 1  RUNWAY 19
Latitude: 60-54.586167N60-55.071000N
Longitude: 161-29.847500W161-29.352000W
Elevation: 22.8 ft.22.8 ft.
Traffic pattern: leftleft
Markings: NSTDNSTD
Touchdown point: yes, no lightsyes, no lights
Obstructions: 5 ft. brush, 10 ft. from runway, 100 ft. left of centerline, 2:1 slope to clear4 ft. brush, 24 ft. from runway, 90 ft. left and right of centerline, 6:1 slope to clear

Airport Ownership and Management from official FAA records

Ownership: Publicly-owned
Owner: ALASKA DOT&PF CENTRAL REGION
PO BOX 196900
ANCHORAGE, AK 99519-6900
Phone 907-269-0770
Manager: LAWRENCE DAVIS
STATE OF ALASKA DOT, 2016 AIRPORT ROAD
BETHEL, AK 99559
Phone (907) 543-2498

Airport Operational Statistics

Aircraft operations: avg 57/week *
100% air taxi
* for 12-month period ending 31 December 2016

Additional Remarks

RY COND NOT MONITORED; RCMD VISUAL INSPECTION PRIOR TO USING.
WX CAMERA AVBL ON INTERNET AT HTTP://AVCAMS.FAA.GOV

Instrument Procedures

There are no published instrument procedures at Z13.

Some nearby airports with instrument procedures:

PFKW - Kwethluk Airport (8 nm S)
PFAK - Akiak Airport (8 nm E)
PABE - Bethel Airport (13 nm SW)
PAPK - Napaskiak Airport (15 nm SW)
PANA - Napakiak Airport (20 nm SW)
 
Loc | Ops | Rwys | IFR | FBO | Links
Com | Nav | Svcs | Stats | Notes

Crowley
 
Area around Z13 (Akiachak Airport)
 
Road maps at: MapQuest Bing Google
 
Aerial photo
No photo
 
Sectional chart

 
Airport distance calculator
Flying to Akiachak Airport? Find the distance to fly.

From to Z13

Sunrise and sunset
Times for 22-Apr-2018
 Local
(UTC-8)
 Zulu
(UTC)
Morning civil twilight06:1414:14
Sunrise07:0515:05
Sunset22:2406:24
Evening civil twilight23:1507:15

Current date and time
Zulu (UTC)  22-Apr-2018 18:39:26
Local (UTC-8)  22-Apr-2018 10:39:26
 
METAR
PFKW 
8nm S 
221756Z AUTO 06017KT 10SM BKN100 BKN120 05/M02 A2953 RMK AO2 SLP998 T00501022 10050 20028 58002
PABE 
12nm SW 
221753Z 05012G20KT 10SM BKN095 04/M02 A2953 RMK SLP000 T00391022 10039 20011 58003 VIA AUTODIAL
PANA 
20nm SW 
221756Z AUTO 08013G17KT 10SM SCT055 OVC085 04/M02 A2951 RMK AO2 SLP992 T00441017 10044 20022 58001
TAF
PABE 
12nm SW 
221727Z 2218/2318 05012KT P6SM VCSH SCT070 BKN090 TEMPO 2218/2222 06014G22KT FM222200 05017G25KT P6SM SCT050 BKN090 FM230900 14010KT 6SM -RASN BKN025 OVC050 FM231200 18006KT P6SM VCSH BKN050
NOTAMs
Click for the latest NOTAMs
NOTAMs are issued by the DoD/FAA and will open in a separate window not controlled by AirNav.

 

 
 

Would you like to see your business listed on this page?

 If your business provides an interesting product or service to pilots, flight crews, aircraft, or users of the Akiachak Airport, you should consider listing it here.  To start the listing process, click on the button below
 
Add a business
 

Other Pages about Akiachak Airport

Update a link
 
Copyright © AirNav, LLC. All rights reserved. Privacy Policy  Contact